Location: Lone Wolf Observatory
(41.0360°N, 89.2260°W)
Time: 15:19:22
(UTC-05:00)

Amateur Radio Satellites - All Passes

Search period start: 01 October 2014 14:49
Search period end: 02 October 2014 14:49
Location: Lone Wolf Observatory, 41.0360°N, 89.2260°W

Satellite Date Start Highest point End Downlink Frequencies (MHz)
Time Altitude Azimuth
AO-7 01 Oct 14:50:19 14:57:02 29° 56° (NE) 15:03:45 29.400 - 29.500 MHz
Oscar 16 01 Oct 14:57:41 15:01:12 18° 268° (W) 15:04:44 437.025 USB, Beacon 2401.1428
AO-Echo 01 Oct 15:03:05 15:07:08 29° 264° (W) 15:11:14 ?
AO-27 01 Oct 15:06:16 15:10:57 35° 263° (W) 15:15:41 436.795 MHz FM
JAS-1B 01 Oct 15:06:25 15:13:22 36° 261° (W) 15:19:21 435.800 - 435.900 CW/SSB
Gurwin Techsat 1B 01 Oct 15:33:07 15:38:06 41° 262° (W) 15:43:07 435.225 FM
TMSAT-1 01 Oct 16:01:56 16:06:34 31° 264° (W) 16:11:15 436.925 FM
MaSat-1 01 Oct 16:07:23 16:09:42 19° 256° (WSW) 16:11:49 437.345 MHz
Saudisat 1A 01 Oct 16:18:37 16:20:02 11° 324° (NW) 16:21:26 436.775 MHz
Uosat F 01 Oct 16:23:35 16:28:34 77° 74° (ENE) 16:33:36 435.120 FM
OPAL 01 Oct 16:36:30 16:37:47 11° 91° (E) 16:39:04 ?
AO-7 01 Oct 16:40:55 16:49:10 69° 255° (WSW) 16:57:27 29.400 - 29.500 MHz
Oscar 10/S400 01 Oct 16:44:06 17:01:47 48° 157° (SSE) 17:40:59 145.825 - 145.975 CW/USB, Beacon 145.810 USB
Sapphire 01 Oct 16:49:15 16:50:32 11° 35° (NE) 16:51:48 437.095 MHz 1200 baud AX-25 AFSK
Hamsat 01 Oct 16:55:35 16:58:22 17° 66° (ENE) 17:01:10 145.90 MHz
KITSAT 1 01 Oct 17:00:33 17:08:28 62° 114° (ESE) 17:16:24 435.175 FM
JAS-2 01 Oct 17:07:56 17:12:33 34° 67° (ENE) 17:17:24 435.800 - 435.900 CW/SSB, 435.910 FM
PCSat 01 Oct 17:13:16 17:16:41 17° 42° (NE) 17:20:06 145.825 MHz
AO-40 01 Oct 17:43:48 00:12:57 40° 185° (S) 05:47:52 Beacon 2401.320
SO-50 01 Oct 18:02:29 18:03:07 10° 106° (ESE) 18:03:46 436.795 FM
Uosat F 01 Oct 18:06:13 18:07:55 12° 271° (W) 18:09:37 435.120 FM
OPAL 01 Oct 18:12:10 18:17:18 83° 287° (WNW) 18:22:19 ?
Hamsat 01 Oct 18:29:51 18:33:59 44° 262° (W) 18:38:07 145.90 MHz
Sapphire 01 Oct 18:29:55 18:35:15 53° 56° (ENE) 18:40:32 437.095 MHz 1200 baud AX-25 AFSK
AO-7 01 Oct 18:40:53 18:43:21 11° 273° (W) 18:45:51 29.400 - 29.500 MHz
SO-67 01 Oct 18:43:40 18:46:41 29° 72° (ENE) 18:49:43 435.3500 MHz FM
JAS-2 01 Oct 18:53:21 18:57:44 28° 266° (W) 19:02:19 435.800 - 435.900 CW/SSB, 435.910 FM
PCSat 01 Oct 18:55:24 19:00:52 89° 244° (WSW) 19:06:17 145.825 MHz
KITSAT 1 01 Oct 18:57:06 19:04:19 35° 315° (NW) 19:11:35 435.175 FM
STRAND 1 01 Oct 19:14:47 19:19:30 35° 97° (E) 19:24:12 ?
SO-50 01 Oct 19:38:27 19:42:56 82° 303° (WNW) 19:47:33 436.795 FM
OPAL 01 Oct 19:53:50 19:55:20 11° 305° (NW) 19:56:49 ?
UOSAT-12 01 Oct 20:04:26 20:07:24 17° 109° (ESE) 20:10:24 437.025 FM, 437.400 FM
Sapphire 01 Oct 20:14:13 20:18:15 22° 254° (WSW) 20:22:16 437.095 MHz 1200 baud AX-25 AFSK
PANSAT 01 Oct 20:14:24 20:15:32 11° 172° (S) 20:16:41 not established
SO-67 01 Oct 20:17:47 20:19:46 15° 267° (W) 20:21:45 435.3500 MHz FM
HO-68 01 Oct 20:20:16 20:26:59 46° 66° (ENE) 20:33:43 435.675 MHz FM
PCSat 01 Oct 20:41:50 20:43:26 11° 258° (WSW) 20:45:01 145.825 MHz
Oscar 11 01 Oct 20:50:47 20:53:48 19° 66° (ENE) 20:56:50 145.825 FM, Beacon 2401.500 USB
STRAND 1 01 Oct 20:54:12 20:58:33 28° 294° (WNW) 21:02:53 ?
KITSAT 1 01 Oct 20:59:23 21:02:41 13° 343° (NNW) 21:05:59 435.175 FM
ISS 01 Oct 21:15:51 21:18:21 20° 133° (SE) 21:20:51 145.800 FM
FUNcube-1 01 Oct 21:17:10 21:19:56 16° 64° (ENE) 21:22:43 145.950 - 145.970 MHz USB
UKube-1 01 Oct 21:19:35 21:23:45 49° 72° (ENE) 21:27:57 145.840 MHz, 145.915 MHz
SO-50 01 Oct 21:21:59 21:24:16 14° 323° (NW) 21:26:34 436.795 FM
Saudisat 1A 01 Oct 21:23:58 21:26:15 14° 39° (NE) 21:28:32 436.775 MHz
UOSAT-12 01 Oct 21:42:32 21:47:05 56° 306° (NW) 21:51:44 437.025 FM, 437.400 FM
PANSAT 01 Oct 21:53:21 21:54:56 12° 185° (S) 21:56:31 not established
ZACube-1 01 Oct 22:00:40 22:04:58 44° 72° (ENE) 22:09:21 437.345 MHz
HO-68 01 Oct 22:08:26 22:14:47 34° 263° (W) 22:21:11 435.675 MHz FM
Oscar 11 01 Oct 22:25:34 22:29:41 40° 262° (W) 22:33:49 145.825 FM, Beacon 2401.500 USB
FUNcube-1 01 Oct 22:51:24 22:55:51 54° 260° (W) 23:00:23 145.950 - 145.970 MHz USB
ISS 01 Oct 22:51:35 22:54:49 48° 329° (NNW) 22:58:03 145.800 FM
UKube-1 01 Oct 22:57:50 23:00:13 15° 268° (W) 23:02:38 145.840 MHz, 145.915 MHz
KITSAT 1 01 Oct 22:59:40 23:02:35 12° 15° (NNE) 23:05:30 435.175 FM
Saudisat 1A 01 Oct 23:02:02 23:06:28 90° 58° (ENE) 23:10:53 436.775 MHz
UOSAT-12 01 Oct 23:27:11 23:28:17 11° 327° (NNW) 23:29:23 437.025 FM, 437.400 FM
ZACube-1 01 Oct 23:38:25 23:41:34 18° 268° (W) 23:44:45 437.345 MHz
ISS 02 Oct 00:30:00 00:32:07 16° 348° (NNW) 00:34:15 145.800 FM
KITSAT 1 02 Oct 00:54:03 01:01:07 32° 43° (NE) 01:08:09 435.175 FM
Oscar 16 02 Oct 01:29:20 01:32:57 19° 92° (E) 01:36:32 437.025 USB, Beacon 2401.1428
RS-15 02 Oct 01:36:30 01:46:34 43° 109° (ESE) 01:56:30 29.354 - 29.394 USB, Beacon 29.352 USB
ISS 02 Oct 02:07:54 02:09:51 15° 9° (N) 02:11:48 145.800 FM
Oscar 19 02 Oct 02:26:12 02:31:20 65° 102° (ESE) 02:36:24 437.125 CW, 437.150 USB
SO-50 02 Oct 02:30:51 02:33:38 15° 38° (NE) 02:36:26 436.795 FM
TMSAT-1 02 Oct 02:39:34 02:41:52 13° 89° (E) 02:44:10 436.925 FM
ITAMSAT 1 02 Oct 02:40:17 02:45:06 36° 98° (E) 02:49:54 435.822 SSB
Uribyol 2 02 Oct 02:40:52 02:45:47 39° 98° (E) 02:50:38 436.500 FM
KITSAT 1 02 Oct 02:49:08 02:57:08 69° 244° (WSW) 03:05:06 435.175 FM
JAS-1B 02 Oct 02:49:51 02:55:30 60° 102° (ESE) 03:01:40 435.800 - 435.900 CW/SSB
Oscar 16 02 Oct 03:07:36 03:12:35 51° 289° (WNW) 03:17:32 437.025 USB, Beacon 2401.1428
AO-Echo 02 Oct 03:08:59 03:14:03 86° 104° (ESE) 03:19:14 ?
AO-27 02 Oct 03:18:44 03:24:00 85° 104° (ESE) 03:29:14 436.795 MHz FM
ISS 02 Oct 03:44:08 03:47:15 37° 28° (NNE) 03:50:22 145.800 FM
RS-15 02 Oct 03:47:48 03:58:34 57° 311° (NW) 04:09:19 29.354 - 29.394 USB, Beacon 29.352 USB
Gurwin Techsat 1B 02 Oct 03:49:01 03:54:21 80° 103° (ESE) 03:59:40 435.225 FM
OPAL 02 Oct 03:49:34 03:53:34 23° 62° (ENE) 03:57:35 ?
Oscar 19 02 Oct 04:07:00 04:10:07 16° 299° (WNW) 04:13:13 437.125 CW, 437.150 USB
SO-50 02 Oct 04:10:03 04:14:55 86° 57° (ENE) 04:19:48 436.795 FM
MaSat-1 02 Oct 04:15:30 04:17:15 12° 102° (ESE) 04:18:59 437.345 MHz
TMSAT-1 02 Oct 04:17:02 04:22:22 77° 286° (WNW) 04:27:39 436.925 FM
ITAMSAT 1 02 Oct 04:20:02 04:24:26 28° 294° (WNW) 04:28:50 435.822 SSB
Uribyol 2 02 Oct 04:20:45 04:25:02 26° 295° (WNW) 04:29:19 436.500 FM
Uosat F 02 Oct 04:32:05 04:36:07 24° 95° (E) 04:40:08 435.120 FM
UOSAT-12 02 Oct 04:33:00 04:36:21 19° 41° (NE) 04:39:39 437.025 FM, 437.400 FM
JAS-1B 02 Oct 04:41:56 04:45:48 19° 299° (WNW) 04:49:49 435.800 - 435.900 CW/SSB
AO-7 02 Oct 04:42:44 04:50:30 42° 99° (E) 04:58:13 29.400 - 29.500 MHz
KITSAT 1 02 Oct 04:48:34 04:51:01 12° 262° (W) 04:53:28 435.175 FM
AO-Echo 02 Oct 04:50:07 04:52:08 12° 300° (WNW) 04:54:10 ?
AO-27 02 Oct 05:00:26 05:02:46 13° 301° (WNW) 05:05:07 436.795 MHz FM
ISS 02 Oct 05:20:59 05:23:52 27° 225° (SW) 05:26:43 145.800 FM
OPAL 02 Oct 05:27:06 05:32:07 48° 258° (WSW) 05:37:10 ?
Gurwin Techsat 1B 02 Oct 05:30:56 05:33:37 14° 300° (WNW) 05:36:18 435.225 FM
MaSat-1 02 Oct 05:48:18 05:53:10 78° 296° (WNW) 05:57:46 437.345 MHz
SO-50 02 Oct 05:53:20 05:54:47 11° 253° (WSW) 05:56:14 436.795 FM
JAS-2 02 Oct 05:59:29 06:05:47 39° 97° (E) 06:12:40 435.800 - 435.900 CW/SSB, 435.910 FM
TMSAT-1 02 Oct 06:00:21 06:01:22 11° 303° (WNW) 06:02:23 436.925 FM
RS-15 02 Oct 06:05:51 06:14:02 23° 342° (NNW) 06:22:19 29.354 - 29.394 USB, Beacon 29.352 USB
Uosat F 02 Oct 06:10:20 06:15:00 40° 291° (WNW) 06:19:40 435.120 FM
UOSAT-12 02 Oct 06:12:16 06:16:58 68° 240° (WSW) 06:21:34 437.025 FM, 437.400 FM
Hamsat 02 Oct 06:15:48 06:19:33 31° 96° (E) 06:23:15 145.90 MHz
STRAND 1 02 Oct 06:30:34 06:35:28 50° 71° (ENE) 06:40:24 ?
AO-7 02 Oct 06:35:33 06:43:16 45° 298° (WNW) 06:50:59 29.400 - 29.500 MHz
MaSat-1 02 Oct 07:28:44 07:30:14 11° 312° (NW) 07:31:43 437.345 MHz
SO-67 02 Oct 07:39:48 07:43:01 35° 98° (E) 07:46:11 435.3500 MHz FM
JAS-2 02 Oct 07:44:34 07:50:46 42° 291° (WNW) 07:57:37 435.800 - 435.900 CW/SSB, 435.910 FM
Hamsat 02 Oct 07:52:07 07:55:19 22° 292° (WNW) 07:58:31 145.90 MHz
PCSat 02 Oct 07:58:12 07:59:36 11° 101° (ESE) 08:00:59 145.825 MHz
STRAND 1 02 Oct 08:11:23 08:14:56 19° 267° (W) 08:18:30 ?
RS-15 02 Oct 08:23:35 08:31:50 23° 18° (NNE) 08:40:14 29.354 - 29.394 USB, Beacon 29.352 USB
Sapphire 02 Oct 09:11:33 09:16:44 50° 113° (ESE) 09:21:58 437.095 MHz 1200 baud AX-25 AFSK
SO-67 02 Oct 09:14:03 09:15:42 13° 293° (WNW) 09:17:20 435.3500 MHz FM
HO-68 02 Oct 09:35:11 09:42:06 47° 100° (E) 09:48:58 435.675 MHz FM
PCSat 02 Oct 09:36:44 09:42:08 88° 118° (ESE) 09:47:36 145.825 MHz
Oscar 11 02 Oct 10:13:16 10:17:14 35° 97° (E) 10:21:10 145.825 FM, Beacon 2401.500 USB
RS-15 02 Oct 10:36:32 10:47:25 56° 49° (NE) 10:58:41 29.354 - 29.394 USB, Beacon 29.352 USB
FUNcube-1 02 Oct 10:41:06 10:45:06 30° 96° (E) 10:49:00 145.950 - 145.970 MHz USB
UKube-1 02 Oct 10:43:45 10:48:08 86° 285° (WNW) 10:52:30 145.840 MHz, 145.915 MHz
Sapphire 02 Oct 10:55:55 11:00:25 26° 312° (NW) 11:04:56 437.095 MHz 1200 baud AX-25 AFSK
PCSat 02 Oct 11:22:51 11:26:18 17° 318° (NW) 11:29:46 145.825 MHz
HO-68 02 Oct 11:23:16 11:29:34 35° 298° (WNW) 11:35:52 435.675 MHz FM
ZACube-1 02 Oct 11:26:13 11:30:48 87° 283° (WNW) 11:35:14 437.345 MHz
Oscar 11 02 Oct 11:49:58 11:53:11 21° 293° (WNW) 11:56:24 145.825 FM, Beacon 2401.500 USB
Oscar 19 02 Oct 12:07:27 12:09:29 12° 59° (ENE) 12:11:31 437.125 CW, 437.150 USB
FUNcube-1 02 Oct 12:17:37 12:21:22 26° 292° (WNW) 12:25:02 145.950 - 145.970 MHz USB
Oscar 16 02 Oct 12:45:58 12:50:22 29° 66° (ENE) 12:54:46 437.025 USB, Beacon 2401.1428
AO-Echo 02 Oct 12:46:53 12:48:45 12° 60° (ENE) 12:50:37 ?
RS-15 02 Oct 12:49:14 12:59:34 46° 250° (WSW) 13:10:20 29.354 - 29.394 USB, Beacon 29.352 USB
AO-27 02 Oct 12:59:53 13:03:05 17° 61° (ENE) 13:06:18 436.795 MHz FM
Saudisat 1A 02 Oct 13:09:05 13:12:34 23° 112° (ESE) 13:16:04 436.775 MHz
Gurwin Techsat 1B 02 Oct 13:32:44 13:35:59 17° 61° (ENE) 13:39:15 435.225 FM
JAS-1B 02 Oct 13:34:26 13:41:42 55° 71° (ENE) 13:47:52 435.800 - 435.900 CW/SSB
Oscar 19 02 Oct 13:42:51 13:48:03 89° 256° (WSW) 13:53:17 437.125 CW, 437.150 USB
AO-7 02 Oct 13:55:07 13:58:24 13° 44° (NE) 14:01:41 29.400 - 29.500 MHz
ITAMSAT 1 02 Oct 13:58:08 14:03:09 55° 72° (ENE) 14:08:14 435.822 SSB
Uribyol 2 02 Oct 13:58:34 14:03:38 59° 72° (ENE) 14:08:46 436.500 FM
TMSAT-1 02 Oct 13:59:37 14:03:32 22° 64° (ENE) 14:07:27 436.925 FM
MaSat-1 02 Oct 14:04:47 14:06:45 15° 50° (NE) 14:08:34 437.345 MHz
AO-Echo 02 Oct 14:22:12 14:26:52 75° 257° (WSW) 14:31:37 ?
Oscar 16 02 Oct 14:24:50 14:29:34 35° 263° (W) 14:34:20 437.025 USB, Beacon 2401.1428
AO-27 02 Oct 14:36:55 14:42:03 65° 258° (WSW) 14:47:14 436.795 MHz FM
